Regional Weather Roundup
Issued by NWS New Orleans/Baton Rouge, LA

Home | Current Version | Previous Version | Text Only | Print | Product List | Glossary On
Versions: 1 2 3 4 5 6 7 8 9 10 11 12 13 14 15 16 17 18 19 20 21 22 23 24 25 26 27 28 29 30 31 32 33 34 35 36 37 38 39 40 41 42 43 44 45 46 47 48 49 50
379
ASUS44 KLIX 311305
RWRLIX
NEW ORLEANS REGIONAL WEATHER ROUNDUP
NATIONAL WEATHER SERVICE NEW ORLEANS LA
800 AM CDT FRI OCT 31 2014

NOTE: "FAIR" INDICATES FEW OR NO CLOUDS BELOW 12,000 FEET WITH NO
      SIGNIFICANT WEATHER AND/OR OBSTRUCTIONS TO VISIBILITY.
      SKY/WX - SKY CONDITION AND SIGNIFICANT WEATHER.
      TMP - AIR TEMPERATURE.     DP    - DEWPOINT TEMPERATURE.
      RH  - RELATIVE HUMIDITY.   PRES  - PRESSURE.
      HI  - HEAT INDEX.          WCI   - WIND CHILL INDEX.

*  THESE STATIONS ARE NOT NWS OR FAA STATIONS AND ARE NOT UNDER
   NWS QUALITY CONTROL.

LAZ038-040-048-061>063-065>067-069-311400-
SOUTHEAST LOUISIANA

CITY           SKY/WX    TMP DP  RH WIND       PRES   REMARKS
N.O. AUDUBON     N/A     58  55  89 MISG        N/A
N.O. INTL ARPT PTCLDY    54  50  86 W5        30.06R
N.O. LAKEFRONT CLEAR     67  49  52 NW9       30.06R
N.O. DOWNTOWN*   N/A     63  46  55 CALM      30.06R
SLIDELL        CLEAR     46  42  86 CALM      30.05R
BATON ROUGE    CLEAR     49  46  90 CALM      30.07R
BOOTHVILLE     CLEAR     64  52  64 NW5       30.05R
BELLE CHASSE   PTCLDY    52  49  89 CALM      30.05R
BOGALUSA*        N/A     43  40  89 CALM      30.06R
NEW ROADS*       N/A     47  46  95 W3        30.08R
GONZALES*        N/A     48  48 100 CALM      30.07R
HAMMOND*       CLEAR     48  45  87 CALM      30.07R
HOUMA*         CLEAR     54  48  82 NW3       30.07R
PORT FOURCHON* SUNNY     64  57  77 N6        30.09R

$$

MSZ070-080>082-311400-
SOUTHERN MISSISSIPPI

CITY           SKY/WX    TMP DP  RH WIND       PRES   REMARKS
MCCOMB         CLEAR     50  44  80 NW7       30.05R
GULFPORT       CLEAR     48  44  86 CALM      30.04R
BILOXI         CLEAR     53  46  75 N5        30.04R
PASCAGOULA     PTCLDY    44  43  96 CALM      30.04R
STENNIS ARPT*  CLEAR     45  41  87 CALM      30.05R

$$

COASTAL OBSERVATIONS
LAKE AND NEARSHORE STATIONS

STATION/POSITION TIME  TEMP    WIND        PRES    WAVE
                       AIR SEA DIR/SP/G            HT/PER
                 (UTC) (F)     (DEG/KT/KT) (MB)    (FT/S)
PASCAGOULA       1300   52     340/  6/  7 1016.3
WAVELAND YACHT   1300   53     290/  3/  4 1016.5
GRAND ISLE       1300   67 72  350/  6/ 10 1018.0
SOUTHWEST PASS   1300   71 77              1017.5
NEW CANAL        1300   67 69  350/  5/ 10 1017.9
SHELL BEACH      1300   66 67  330/  8/  9 1017.2

OFFSHORE STATIONS

STATION/POSITION TIME  TEMP    WIND        PRES    WAVE
                       AIR SEA DIR/SP/G            HT/PER
                 (UTC) (F)     (DEG/KT/KT) (MB)    (FT/S)
64 S DAUPHIN ISL 1250   69 77  360/ 16/ 19 1016.8    3/ 5

$$




USA.gov is the U.S. government's official web portal to all federal, state and local government web resources and services.